Regional Weather Roundup
Issued by NWS Kansas City/Pleasant Hill, MO

Home | Current Version | Previous Version | Text Only | Print | Product List | Glossary On
Versions: 1 2 3 4 5 6 7 8 9 10 11 12 13 14 15 16 17 18 19 20 21 22 23 24 25 26 27 28 29 30 31 32 33 34 35 36 37 38 39 40 41 42 43 44 45 46 47 48 49 50
000
ASUS43 KEAX 280611
RWREAX

WEATHER ROUNDUP FOR EASTERN KANSAS AND NORTHWEST MISSOURI
NATIONAL WEATHER SERVICE KANSAS CITY/PLEASANT HILL MO
100 AM CDT THU AUG 28 2014

KSZ040-057-103>105-MOZ028-029-037-043-280700-
...KANSAS CITY METROPOLITAN AREA...

CITY           SKY/WX    TMP DP  RH WIND       PRES   REMARKS
K.C. INTL      MOCLDY    76  71  85 E9        30.02F
6HR MIN TEMP:  76; 6HR MAX TEMP:  82;

K.C. DOWNTOWN  FAIR      79  73  82 E9        30.01F
6HR MIN TEMP:  79; 6HR MAX TEMP:  84;

LEES SUMMIT    FAIR      76  72  87 E6        30.04F
6HR MIN TEMP:  76; 6HR MAX TEMP:  82;

OLATHE - IXD   FAIR      77  73  87 E6        30.03F
6HR MIN TEMP:  77; 6HR MAX TEMP:  83;

OLATHE - OJC   FAIR      77  73  87 E7        30.02F
6HR MIN TEMP:  77; 6HR MAX TEMP:  82;

LAWRENCE       FAIR      81  73  76 SE6       30.01F

$$

MOZ001>008-011>017-020>025-030>033-038>040-044>046-053-054-280700-
...NORTHERN AND CENTRAL MISSOURI...

CITY           SKY/WX    TMP DP  RH WIND       PRES   REMARKS
ST. JOSEPH     FAIR      74  70  87 E6        30.02F
6HR MIN TEMP:  74; 6HR MAX TEMP:  79;

MOSBY          FAIR      75  72  88 E6        30.02F
WHITEMAN AFB   MOCLDY    74  51  45 NE1       30.03S
6HR MIN TEMP:  73; 6HR MAX TEMP:  80;

CLINTON        FAIR      77  72  83 CALM      30.03S
SEDALIA        FAIR      74  68  81 SE5       30.04F
6HR MIN TEMP:  74; 6HR MAX TEMP:  84;

WARSAW         NOT AVBL
MARSHALL       FAIR      75  72  88 E5        30.04F
CHILLICOTHE      N/A     74  70  87 NE3       30.06F
6HR MIN TEMP:  74; 6HR MAX TEMP:  80; 6HR PCP:  0.01;

MOBERLY        FAIR      72  68  88 NE5       30.07F
KIRKSVILLE     FAIR      72  70  93 NE6       30.08F
6HR MIN TEMP:  71; 6HR MAX TEMP:  76;


$$

MOZ041-047>049-056>058-063>065-088>090-097-280700-
...EASTERN AND SOUTHERN MISSOURI...

CITY           SKY/WX    TMP DP  RH WIND       PRES   REMARKS
ST. LOUIS INTL FAIR      75  69  81 CALM      30.06S
6HR MIN TEMP:  75; 6HR MAX TEMP:  79; 6HR PCP:  0.05;

SPIRIT OF STL  FAIR      71  69  93 CALM      30.04F
COLUMBIA       FAIR      71  68  90 SE6       30.05F
JEFFERSON CITY FAIR      71  68  90 SE3       30.04F
MEXICO         FAIR     N/A N/A N/A CALM      30.06F
HANNIBAL       FAIR      72  70  94 CALM      30.07F
ROLLA          FAIR      72  66  81 SE8       30.05F
LEBANON        FAIR      73  68  83 S5        30.07F
OSAGE BEACH    FAIR      72  66  83 SE3       30.04F
SPRINGFIELD    FAIR      75  68  78 S7        30.05S
BRANSON        FAIR      77  68  73 CALM      30.07F
JOPLIN         FAIR      77  69  76 S7        30.02F
WEST PLAINS    FAIR      71  67  87 CALM      30.09S

$$

IAZ060-094-KSZ022-034>040-054-083-096-NEZ052-066-093-280700-
...KANSAS...SOUTHEAST NEBRASKA AND IOWA...

CITY           SKY/WX    TMP DP  RH WIND       PRES   REMARKS
TOPEKA         FAIR      80  74  81 E8        30.00F
6HR MIN TEMP:  79; 6HR MAX TEMP:  84;

MANHATTAN      FAIR      79  71  76 SE8       29.97F
EMPORIA        FAIR      79  67  66 SE13      30.00F
CHANUTE        FAIR      78  67  68 SE7       30.01F
WICHITA        MOCLDY    80  64  58 S13       29.98S
OMAHA          LGT RAIN  72  68  87 E9        30.04F
LINCOLN        LGT RAIN  72  69  90 E13       30.02F
FALLS CITY     MOCLDY    72  69  90 SE8       30.02S THUNDER
LAMONI         FAIR      72  69  90 E3        30.07F
DES MOINES     FAIR      71  67  87 E5        30.09R

$$




USA.gov is the U.S. government's official web portal to all federal, state and local government web resources and services.